Wind_Speed
3 3 3 3 3 3 4 5 6 6 6 6 6 6 7 7 7 7 7 7 7 7 7 7 7 8 8 9 9 9 9 10 11 12 12 13 13 14 14 14 14 15 14
4 4 4 4 4 4 5 5 6 7 7 7 7 7 8 8 8 8 8 8 7 7 7 8 8 9 9 10 10 10 10 11 12 12 13 13 13 14 15 15 15 15 16
4 5 5 5 5 5 5 6 7 7 7 7 7 8 9 9 9 9 8 8 8 8 9 9 10 10 11 11 11 12 12 13 14 14 14 13 14 15 16 16 16 16 16
5 5 6 6 6 6 6 6 7 7 8 8 8 9 9 9 10 10 9 10 9 9 9 10 10 11 12 12 13 13 14 14 14 15 14 14 14 16 17 16 16 17 16
6 6 7 7 7 7 7 7 7 7 8 8 9 9 10 10 11 11 11 10 10 10 10 11 11 12 13 13 14 14 14 14 15 15 15 15 16 17 17 17 17 17 18
7 7 7 8 8 9 9 9 8 8 9 9 10 10 10 10 11 12 12 12 12 12 11 12 12 13 13 14 15 15 16 16 16 15 16 16 17 18 17 17 18 18 19
8 8 8 8 8 9 9 9 9 9 9 10 12 12 13 13 12 12 13 13 13 14 14 13 14 14 14 15 16 16 17 17 18 18 18 18 18 18 18 17 18 18 19
8 8 9 9 9 9 10 10 11 11 11 12 13 14 13 14 13 13 14 15 15 15 15 16 16 16 16 16 16 17 17 19 19 20 20 20 20 19 19 19 19 19 20
9 8 9 10 10 10 11 11 12 13 13 14 14 14 14 14 16 17 16 16 16 16 17 17 17 17 17 17 18 18 19 20 21 21 21 20 20 20 20 19 20 20 21
10 10 10 10 11 11 12 12 13 14 15 15 15 15 15 16 17 18 18 18 18 18 18 18 18 19 19 20 20 21 21 21 21 22 21 21 21 21 21 20 21 21 21
11 11 12 11 11 12 13 14 15 15 15 15 15 16 17 18 19 19 19 18 19 20 19 19 20 21 21 22 22 22 23 23 23 23 22 22 22 22 21 21 20 20 21
12 12 13 13 13 14 15 16 16 16 16 17 17 18 19 20 20 21 20 20 20 21 21 21 21 21 22 22 23 24 24 25 25 24 24 24 24 23 23 21 21 21 21
14 13 13 14 15 16 16 16 17 17 18 19 19 20 21 21 21 21 21 21 21 21 21 22 22 22 22 22 23 25 26 26 26 26 25 25 24 24 24 23 22 21 22
15 14 14 15 16 16 17 18 19 19 19 20 20 20 22 22 21 21 22 22 22 22 22 23 23 23 23 23 24 24 25 26 26 26 26 26 25 25 25 25 24 23 23
16 16 16 16 17 18 19 19 20 21 21 21 21 21 22 22 23 23 23 23 23 23 22 23 23 23 23 24 25 25 25 25 25 26 26 26 26 26 25 25 24 24 24
18 18 18 18 19 20 21 21 21 22 22 22 22 22 22 23 23 23 24 24 24 25 24 23 24 25 25 25 26 26 26 25 25 25 26 26 26 26 26 25 24 25 25
19 20 21 21 22 23 23 23 23 24 24 23 23 23 23 23 24 24 24 24 25 25 25 24 25 25 26 26 26 26 26 26 26 26 26 25 25 25 26 25 24 24 24
22 23 23 24 24 25 25 24 24 24 25 24 24 24 24 24 24 24 24 25 26 26 25 24 25 26 26 26 26 25 25 26 26 26 26 26 26 26 25 25 25 25 25
25 25 25 25 26 26 26 26 25 26 26 25 25 25 25 25 25 25 26 26 26 26 26 25 26 26 27 27 27 26 26 27 27 26 26 26 26 26 26 25 25 25 25
27 28 28 28 28 28 28 28 28 28 28 27 27 27 27 28 28 28 28 28 28 27 27 26 26 27 27 27 27 26 26 26 26 26 26 27 27 26 26 26 25 25 25
29 29 30 30 30 30 30 30 30 29 29 29 29 29 29 29 29 29 30 30 29 29 28 28 28 27 28 28 28 27 27 26 27 26 26 26 26 25 25 26 26 25 25
30 31 32 32 32 32 32 32 32 30 30 30 30 30 30 30 30 30 30 31 30 30 30 30 30 28 28 28 28 27 27 27 26 26 26 24 24 24 25 24 25 25 25
32 33 33 34 34 34 33 33 33 32 31 30 30 30 30 30 30 30 30 31 31 31 31 29 29 28 28 27 26 26 26 26 26 25 25 24 25 25 25 25 25 25 25
33 34 34 34 34 34 34 34 34 33 32 32 31 31 31 30 30 30 30 31 32 31 30 30 29 28 27 27 27 26 26 26 26 25 24 25 25 26 25 25 26 26 25
34 34 34 34 34 34 34 34 33 33 32 32 31 30 30 30 30 30 30 31 31 30 30 30 29 28 28 28 28 27 27 26 26 25 25 25 25 26 26 26 27 27 26
34 33 33 33 33 33 33 32 33 32 32 31 31 31 30 30 31 31 31 31 30 30 30 31 30 29 28 28 28 28 28 27 27 26 26 27 27 27 27 27 27 28 27
Wind_Direction
13 3 354 341 328 315 307 308 303 299 296 301 307 306 308 309 314 314 312 310 306 301 297 294 289 286 285 284 286 286 282 281 279 278 281 280 278 276 274 274 274 272 272
2 353 352 343 332 322 314 310 307 304 301 297 301 302 304 301 301 303 303 308 307 301 299 296 292 286 284 283 287 289 287 286 283 280 279 279 277 276 278 278 275 273 272
352 352 342 337 334 330 319 307 302 302 300 295 296 298 296 292 295 294 299 302 301 299 298 299 296 290 287 284 286 289 287 286 286 283 282 283 281 277 277 277 275 275 274
341 337 331 331 329 326 326 315 308 308 304 300 293 297 300 298 295 296 296 296 297 295 294 296 298 293 289 288 288 287 287 288 290 285 282 283 283 281 277 276 277 275 273
331 330 327 324 325 325 322 319 313 309 306 302 303 301 303 305 302 296 293 291 293 293 294 296 297 295 293 292 289 288 286 287 288 285 283 284 284 282 278 276 275 274 272
325 322 324 324 324 323 323 322 318 310 304 300 304 305 303 302 303 299 295 293 294 293 292 292 296 297 294 293 291 290 289 288 287 289 285 284 285 283 281 278 276 276 274
322 320 319 321 320 322 319 317 316 313 307 303 303 303 299 296 297 301 299 298 299 296 293 290 291 293 295 294 292 290 288 287 286 288 287 286 286 285 281 280 278 275 273
314 314 315 314 312 314 316 315 314 311 307 304 303 302 301 298 295 298 300 300 300 298 295 291 287 288 291 293 293 292 290 288 287 287 286 286 286 283 282 280 277 275 274
310 309 309 309 308 309 309 310 310 308 306 306 306 304 302 297 294 295 298 298 295 293 291 292 288 287 289 289 289 289 288 288 289 288 288 286 286 285 283 282 277 274 274
310 309 307 305 302 303 304 305 305 304 304 305 304 304 305 304 300 297 297 297 295 292 290 290 289 285 286 287 287 287 288 289 288 288 286 284 285 284 284 283 280 274 272
313 310 306 302 299 299 300 303 302 301 303 304 304 303 303 304 303 301 300 299 296 293 291 288 285 285 285 284 285 287 287 287 288 288 286 284 284 284 284 282 279 275 271
308 305 299 296 295 295 296 296 299 303 303 302 302 301 302 303 304 301 299 297 297 295 293 291 288 286 285 285 284 284 285 287 287 287 286 284 281 281 281 280 278 275 274
306 303 300 297 294 293 294 295 298 300 300 299 299 301 302 303 303 301 300 298 298 297 294 291 290 289 288 286 286 285 284 285 286 286 286 285 283 280 279 277 277 277 275
304 303 300 299 296 293 294 295 295 296 297 297 298 300 302 301 301 300 299 297 297 298 295 293 291 291 290 290 290 289 287 286 286 286 285 284 282 281 279 277 276 276 276
302 300 299 299 297 295 294 294 294 295 295 296 296 297 299 299 297 296 295 296 297 297 296 294 292 292 293 294 294 291 289 288 287 287 285 283 281 282 281 277 275 274 274
302 300 299 298 298 297 296 294 294 294 294 294 294 295 296 295 294 293 293 294 295 297 297 296 292 291 292 293 295 294 291 290 289 288 285 281 280 281 280 278 276 274 273
304 302 301 300 298 297 296 296 295 294 293 292 293 293 293 292 293 291 292 295 296 297 297 295 294 294 294 292 293 292 291 290 290 288 286 283 281 279 279 278 277 275 274
302 301 300 299 297 296 296 295 294 293 293 292 291 291 291 291 293 295 294 296 297 297 297 294 295 297 296 294 294 293 291 291 290 289 286 283 282 281 279 278 277 275 274
299 298 298 297 296 296 295 296 296 293 292 291 291 290 290 290 290 292 294 296 297 296 295 294 295 297 296 295 294 294 292 290 289 288 286 284 283 282 280 279 277 275 273
297 297 296 296 295 294 293 293 294 293 291 291 291 289 289 288 287 288 291 294 296 295 293 293 294 296 296 296 295 294 292 292 290 287 285 283 281 281 282 281 279 277 276
297 297 297 296 294 293 291 290 291 291 290 289 289 288 287 287 286 286 288 291 293 294 293 294 295 296 296 295 296 293 291 292 291 289 287 284 282 282 283 282 281 278 276
297 297 297 296 295 293 292 290 289 289 290 288 287 287 286 286 285 285 287 289 290 292 293 293 293 295 295 294 294 294 292 292 290 288 287 285 284 285 285 282 281 280 279
296 297 297 296 295 295 293 291 289 289 290 289 287 286 285 286 286 285 286 287 288 289 291 292 293 295 294 293 294 294 293 293 292 290 287 287 286 287 285 283 284 284 281
297 297 296 295 294 294 293 291 289 288 288 288 287 287 286 286 286 286 285 286 287 289 290 290 291 291 291 291 293 294 293 292 292 290 288 288 288 287 286 285 285 286 282
294 295 295 295 295 294 292 290 288 288 287 288 288 289 286 285 288 290 288 287 287 289 291 292 290 289 288 290 290 291 292 291 291 290 289 289 289 288 287 287 286 286 285
294 296 298 297 297 295 293 291 289 287 287 287 286 286 284 285 288 290 290 289 288 289 291 292 291 289 288 289 290 291 292 291 290 289 288 288 288 287 286 286 286 285 284
Height
5890 5890 5889 5889 5888 5888 5887 5887 5886 5886 5885 5885 5883 5883 5883 5882 5882 5881 5881 5880 5879 5878 5877 5877 5876 5875 5874 5874 5874 5873 5873 5873 5872 5872 5871 5871 5871 5870 5870 5869 5869 5869 5869
5890 5889 5888 5888 5887 5887 5886 5886 5885 5884 5883 5882 5882 5881 5881 5880 5880 5879 5879 5878 5877 5876 5875 5875 5874 5873 5872 5872 5872 5871 5870 5870 5869 5869 5868 5868 5867 5867 5866 5866 5865 5865 5865
5889 5889 5888 5887 5886 5885 5884 5884 5883 5882 5881 5881 5880 5880 5879 5878 5877 5877 5876 5876 5875 5874 5873 5872 5871 5870 5869 5869 5869 5868 5868 5867 5866 5865 5865 5864 5864 5863 5863 5862 5861 5861 5861
5889 5888 5887 5886 5885 5884 5883 5882 5881 5880 5879 5879 5878 5877 5876 5876 5875 5874 5874 5873 5872 5872 5871 5870 5868 5867 5866 5866 5866 5865 5865 5864 5863 5862 5861 5861 5860 5859 5858 5858 5857 5857 5856
5887 5887 5886 5885 5883 5882 5881 5880 5879 5878 5877 5877 5876 5875 5874 5873 5872 5872 5871 5870 5869 5869 5868 5867 5865 5864 5864 5863 5862 5862 5861 5860 5859 5858 5857 5857 5856 5855 5854 5853 5853 5852 5852
5886 5885 5884 5883 5882 5881 5879 5878 5877 5876 5876 5875 5874 5873 5872 5870 5869 5869 5868 5867 5866 5865 5864 5864 5863 5862 5861 5860 5859 5858 5857 5856 5855 5854 5853 5852 5851 5851 5850 5849 5848 5848 5848
5884 5884 5883 5881 5880 5879 5878 5877 5875 5874 5873 5872 5872 5871 5869 5868 5867 5866 5865 5864 5863 5862 5861 5860 5859 5858 5857 5856 5855 5854 5853 5852 5851 5850 5848 5847 5847 5845 5845 5844 5844 5843 5843
5882 5882 5881 5879 5878 5877 5876 5874 5873 5872 5871 5870 5869 5868 5866 5866 5863 5862 5861 5860 5859 5858 5857 5855 5855 5854 5852 5852 5851 5850 5849 5848 5846 5845 5844 5842 5842 5841 5840 5839 5838 5838 5838
5880 5879 5878 5877 5876 5875 5873 5872 5871 5870 5869 5867 5865 5864 5863 5862 5860 5859 5857 5856 5855 5853 5852 5851 5850 5849 5848 5847 5846 5845 5844 5843 5841 5840 5838 5837 5836 5835 5835 5833 5833 5833 5833
5878 5877 5876 5874 5873 5872 5871 5870 5868 5867 5866 5864 5862 5861 5859 5858 5856 5855 5854 5852 5850 5848 5847 5846 5845 5844 5843 5842 5840 5839 5838 5837 5836 5835 5833 5832 5831 5830 5829 5828 5827 5827 5827
5876 5875 5873 5872 5871 5869 5868 5867 5865 5864 5862 5861 5859 5857 5856 5854 5852 5850 5849 5847 5845 5843 5842 5840 5839 5838 5837 5836 5835 5834 5832 5831 5830 5828 5827 5826 5825 5824 5823 5822 5821 5821 5820
5873 5871 5870 5868 5867 5866 5865 5863 5862 5860 5858 5857 5855 5853 5852 5850 5847 5845 5844 5842 5840 5838 5837 5835 5833 5832 5831 5829 5828 5827 5826 5824 5823 5821 5820 5819 5818 5818 5817 5816 5815 5815 5814
5870 5868 5867 5865 5864 5862 5861 5859 5858 5856 5854 5853 5851 5849 5847 5845 5842 5841 5839 5837 5835 5833 5831 5830 5828 5826 5825 5823 5821 5820 5819 5817 5816 5815 5814 5812 5811 5811 5810 5809 5809 5808 5808
5867 5865 5864 5862 5860 5858 5857 5855 5853 5851 5850 5848 5846 5844 5842 5840 5838 5836 5834 5833 5831 5829 5827 5825 5823 5821 5819 5816 5815 5813 5811 5810 5809 5808 5807 5806 5805 5804 5803 5802 5802 5801 5801
5864 5862 5860 5858 5856 5854 5852 5851 5849 5847 5845 5843 5841 5839 5837 5835 5833 5831 5829 5827 5826 5824 5822 5820 5817 5815 5813 5811 5808 5806 5804 5803 5802 5800 5799 5799 5798 5797 5796 5795 5795 5795 5794
5860 5858 5855 5854 5852 5850 5848 5846 5844 5842 5840 5838 5836 5834 5831 5829 5827 5825 5824 5822 5820 5818 5816 5814 5812 5809 5807 5805 5802 5799 5797 5796 5794 5793 5792 5791 5791 5790 5789 5788 5788 5788 5787
5855 5853 5851 5849 5847 5844 5842 5840 5838 5836 5834 5832 5830 5828 5826 5824 5821 5819 5817 5815 5813 5811 5810 5808 5805 5803 5801 5798 5795 5793 5791 5789 5787 5786 5785 5784 5784 5783 5782 5781 5781 5781 5780
5850 5848 5845 5843 5841 5839 5836 5834 5832 5830 5827 5826 5824 5822 5820 5818 5816 5814 5811 5809 5807 5805 5803 5801 5799 5796 5794 5791 5789 5786 5784 5782 5781 5779 5778 5777 5777 5776 5775 5774 5774 5773 5773
5844 5842 5839 5837 5835 5832 5830 5828 5825 5823 5821 5819 5817 5815 5813 5811 5809 5807 5805 5803 5801 5798 5796 5794 5792 5790 5787 5785 5782 5780 5778 5776 5774 5773 5771 5770 5770 5769 5768 5767 5766 5766 5765
5837 5835 5832 5830 5828 5825 5823 5820 5818 5816 5814 5811 5809 5807 5806 5804 5802 5800 5798 5796 5794 5791 5789 5787 5785 5783 5781 5778 5776 5774 5771 5769 5767 5766 5764 5763 5762 5762 5761 5760 5759 5758 5758
5829 5827 5825 5822 5819 5817 5814 5812 5810 5808 5806 5803 5801 5799 5797 5795 5794 5792 5790 5788 5786 5784 5782 5780 5778 5776 5774 5771 5769 5767 5764 5762 5761 5759 5757 5756 5755 5754 5753 5752 5751 5751 5750
5822 5819 5817 5814 5811 5808 5806 5803 5801 5799 5797 5795 5793 5791 5789 5787 5785 5784 5782 5780 5778 5776 5774 5773 5771 5769 5766 5764 5762 5760 5757 5756 5754 5753 5751 5749 5748 5747 5746 5745 5744 5743 5742
5814 5811 5808 5805 5802 5799 5796 5794 5791 5790 5788 5786 5784 5782 5780 5778 5776 5775 5773 5772 5770 5768 5766 5765 5763 5761 5759 5757 5755 5753 5750 5748 5747 5745 5744 5742 5741 5740 5739 5738 5737 5736 5735
5805 5802 5799 5796 5793 5790 5787 5785 5782 5781 5778 5776 5774 5772 5771 5769 5767 5766 5764 5763 5761 5759 5757 5756 5755 5753 5751 5749 5747 5746 5743 5741 5740 5738 5737 5736 5734 5732 5731 5730 5729 5728 5728
5796 5793 5790 5787 5784 5781 5778 5775 5773 5771 5769 5767 5766 5764 5762 5760 5759 5757 5756 5754 5753 5751 5749 5747 5746 5744 5742 5741 5739 5738 5736 5734 5732 5731 5729 5728 5727 5725 5724 5723 5721 5720 5720
5787 5784 5781 5778 5775 5772 5769 5766 5764 5762 5760 5758 5757 5756 5754 5752 5750 5749 5747 5746 5744 5742 5741 5739 5737 5736 5734 5733 5731 5729 5728 5726 5724 5723 5722 5720 5719 5718 5717 5715 5714 5713 5712